KA3RQR Weather Reports


Display with metric or nautical units.
time (UTC)temp
F
wind
direction
speed
MPH
gust
MPH
rain 1hr
in
rain 24hr
in
rain mn
in
humidity
%
barometer
mb
20260507151252 55 184 0.0 0.0 0.00 0.04 0.04 69 1012.5
20260507150749 54 166 1.0 1.0 0.00 0.04 0.04 66 1012.2
20260507150246 54 117 0.0 1.0 0.00 0.04 0.04 69 1012.5
20260507145742 54 164 0.0 0.0 0.00 0.04 0.04 68 1012.8
20260507145238 54 147 0.0 0.0 0.00 0.04 0.04 70 1012.7
20260507144735 54 193 1.0 1.0 0.00 0.04 0.04 69 1012.9
20260507144233 54 185 1.0 1.0 0.00 0.04 0.04 71 1012.7
20260507143729 54 169 0.0 0.0 0.00 0.04 0.04 71 1013.1
20260507143227 54 178 0.0 0.0 0.00 0.04 0.04 73 1013.0
20260507142723 53 181 0.0 1.0 0.00 0.04 0.04 73 1012.8
20260507142220 53 177 0.0 0.0 0.00 0.04 0.04 73 1013.0
20260507141715 53 171 0.0 0.0 0.00 0.04 0.04 73 1013.1
20260507141213 53 167 0.0 0.0 0.00 0.04 0.04 74 1012.9
20260507140709 53 175 0.0 1.0 0.00 0.04 0.04 73 1013.0
20260507140206 53 170 0.0 0.0 0.00 0.04 0.04 72 1013.2
20260507135703 53 162 0.0 0.0 0.00 0.04 0.04 74 1013.3
20260507135201 53 178 1.0 1.0 0.00 0.04 0.04 73 1013.0
20260507134657 53 195 0.0 1.0 0.00 0.04 0.04 71 1013.3
20260507134153 53 167 0.0 0.0 0.00 0.04 0.04 75 1013.3
20260507133649 53 184 0.0 1.0 0.00 0.04 0.04 75 1013.4
20260507133146 53 168 0.0 0.0 0.00 0.04 0.04 74 1013.5
20260507132644 53 177 1.0 1.0 0.00 0.04 0.04 73 1013.4
20260507132139 53 171 0.0 0.0 0.00 0.04 0.04 78 1013.3
20260507131637 53 189 1.0 1.0 0.00 0.04 0.04 80 1013.1
20260507131134 53 203 0.0 0.0 0.00 0.04 0.04 83 1012.9
20260507130630 53 186 0.0 1.0 0.00 0.04 0.04 82 1013.3
20260507130129 53 175 0.0 0.0 0.00 0.04 0.04 81 1013.1
20260507125627 53 170 0.0 0.0 0.00 0.04 0.04 81 1013.0
20260507125124 53 173 1.0 1.0 0.00 0.04 0.04 81 1013.0
20260507124620 53 165 0.0 1.0 0.00 0.04 0.04 81 1013.1
20260507124118 53 183 0.0 1.0 0.00 0.04 0.04 81 1013.0
20260507123616 53 151 1.0 1.0 0.00 0.04 0.04 81 1013.0
20260507123113 53 173 0.0 0.0 0.00 0.04 0.04 81 1013.0
20260507122608 53 173 1.0 2.0 0.00 0.04 0.04 80 1013.3
20260507122104 53 172 0.0 0.0 0.00 0.04 0.04 80 1013.2
20260507121601 53 170 0.0 0.0 0.00 0.04 0.04 80 1013.1
20260507121056 53 173 0.0 0.0 0.00 0.04 0.04 80 1013.1
20260507120552 53 168 0.0 0.0 0.00 0.04 0.04 80 1012.9
20260507120049 53 169 0.0 0.0 0.00 0.04 0.04 81 1013.0
20260507115546 53 169 0.0 0.0 0.00 0.04 0.04 82 1012.9
20260507115042 53 181 1.0 2.0 0.00 0.04 0.04 82 1012.8
20260507114537 53 161 0.0 0.0 0.00 0.04 0.04 83 1012.9
20260507114035 53 196 1.0 1.0 0.00 0.04 0.04 82 1012.8
20260507113532 53 166 0.0 0.0 0.00 0.04 0.04 83 1012.9
20260507113029 53 160 0.0 0.0 0.00 0.04 0.04 84 1012.4
20260507112527 53 174 0.0 0.0 0.00 0.04 0.04 85 1012.4
20260507112023 53 159 1.0 1.0 0.00 0.04 0.04 85 1012.6
20260507111521 53 171 0.0 0.0 0.00 0.04 0.04 86 1012.6
20260507111017 53 181 0.0 0.0 0.00 0.04 0.04 86 1012.5
20260507110514 53 166 0.0 0.0 0.00 0.04 0.04 87 1012.6
20260507110010 53 167 0.0 0.0 0.00 0.04 0.04 87 1012.5
20260507105507 53 175 0.0 0.0 0.00 0.04 0.04 87 1012.7
20260507105003 53 172 0.0 0.0 0.00 0.04 0.04 87 1012.6
20260507104501 53 182 0.0 1.0 0.00 0.04 0.04 87 1012.5
20260507103956 53 167 0.0 0.0 0.00 0.04 0.04 87 1012.4
20260507103453 53 176 0.0 0.0 0.00 0.04 0.04 88 1012.3
20260507102949 53 169 0.0 0.0 0.00 0.04 0.04 88 1012.2
20260507102446 53 172 0.0 0.0 0.00 0.04 0.04 88 1012.2
20260507101943 53 159 0.0 0.0 0.00 0.04 0.04 88 1012.1
20260507101438 53 174 0.0 0.0 0.00 0.04 0.04 89 1012.2
20260507100934 53 169 0.0 0.0 0.00 0.04 0.04 88 1012.0
20260507100432 53 173 0.0 0.0 0.00 0.04 0.04 89 1012.3
20260507095930 53 173 0.0 0.0 0.00 0.04 0.04 90 1011.8
20260507095427 53 170 0.0 0.0 0.00 0.04 0.04 90 1012.1
20260507094924 53 190 0.0 1.0 0.00 0.04 0.04 91 1012.0
20260507094420 53 171 0.0 0.0 0.00 0.04 0.04 91 1012.0
20260507093917 53 172 0.0 0.0 0.00 0.04 0.04 92 1012.0
20260507093416 53 171 0.0 0.0 0.00 0.04 0.04 92 1012.1
20260507092914 53 167 0.0 0.0 0.00 0.04 0.04 92 1011.9
20260507092409 53 169 0.0 0.0 0.00 0.04 0.04 92 1012.0
20260507091906 53 163 0.0 0.0 0.00 0.04 0.04 93 1011.6
20260507091403 53 170 0.0 0.0 0.00 0.04 0.04 93 1011.7
20260507090858 53 195 1.0 2.0 0.00 0.04 0.04 93 1011.8
20260507090355 53 180 1.0 1.0 0.00 0.04 0.04 93 1011.6
20260507085852 53 169 0.0 0.0 0.00 0.04 0.04 94 1011.7
20260507085348 53 208 1.0 2.0 0.00 0.04 0.04 94 1011.9
20260507084846 53 175 0.0 0.0 0.00 0.04 0.04 94 1011.6
20260507084342 54 179 0.0 0.0 0.00 0.04 0.04 94 1011.5
20260507083840 54 180 0.0 0.0 0.00 0.04 0.04 94 1011.7
20260507083336 54 165 0.0 0.0 0.00 0.04 0.04 93 1011.7
20260507082832 54 171 0.0 0.0 0.00 0.04 0.04 93 1011.9
20260507082328 54 174 0.0 0.0 0.00 0.04 0.04 93 1011.7
20260507081826 54 170 0.0 0.0 0.00 0.04 0.04 93 1011.6
20260507081321 54 174 0.0 0.0 0.00 0.04 0.04 93 1011.6
20260507080818 54 179 0.0 1.0 0.00 0.04 0.04 93 1011.4
20260507080314 54 176 0.0 0.0 0.00 0.04 0.04 93 1011.2
20260507075810 54 169 0.0 0.0 0.00 0.04 0.04 93 1011.2
20260507075307 54 209 2.0 2.0 0.00 0.04 0.04 92 1010.9
20260507074803 54 180 1.0 2.0 0.00 0.04 0.04 93 1010.8
20260507074301 54 179 0.0 1.0 0.00 0.04 0.04 93 1011.1
20260507073757 54 194 0.0 0.0 0.05 0.04 0.04 93 1011.2
20260507073254 54 181 1.0 2.0 0.05 0.04 0.04 93 1010.9
20260507072751 54 188 1.0 1.0 0.00 0.03 0.03 93 1010.9
20260507072249 54 264 1.0 2.0 0.00 0.03 0.03 93 1010.8
20260507071746 54 187 1.0 1.0 0.00 0.03 0.03 92 1011.0
20260507071242 54 156 1.0 1.0 0.00 0.03 0.03 92 1011.1
20260507070739 54 182 0.0 1.0 0.00 0.03 0.03 93 1010.8
20260507070236 55 220 1.0 2.0 0.00 0.03 0.03 93 1010.9
20260507065733 55 157 0.0 0.0 0.00 0.03 0.03 93 1010.8
20260507065230 55 188 2.0 2.0 0.00 0.03 0.03 93 1011.0
20260507064727 55 191 0.0 0.0 0.00 0.03 0.03 94 1011.1
20260507064226 55 173 0.0 1.0 0.00 0.03 0.03 94 1011.0
20260507063723 55 174 1.0 1.0 0.00 0.03 0.03 94 1010.9
20260507063220 55 174 0.0 0.0 0.00 0.03 0.03 94 1011.1
20260507062716 55 171 0.0 0.0 0.00 0.03 0.03 94 1011.2
20260507062214 55 185 0.0 0.0 0.00 0.03 0.03 95 1011.2
20260507061712 55 193 0.0 0.0 0.00 0.03 0.03 95 1011.1
20260507061209 55 170 0.0 0.0 0.00 0.03 0.03 95 1010.9
20260507060707 55 171 0.0 0.0 0.00 0.03 0.03 95 1010.8
20260507060203 55 159 0.0 1.0 0.00 0.03 0.03 95 1010.9
20260507055659 55 206 4.0 7.0 0.00 0.03 0.03 95 1011.0
20260507055155 55 230 2.0 3.0 0.00 0.03 0.03 95 1010.8
20260507054651 55 207 1.0 1.0 0.00 0.03 0.03 95 1010.9
20260507054148 55 191 1.0 1.0 0.07 0.03 0.03 95 1011.1
20260507053646 56 217 1.0 2.0 0.07 0.03 0.03 94 1011.2
20260507053144 56 176 0.0 0.0 0.00 0.02 0.02 94 1011.3
20260507052643 56 165 0.0 1.0 0.00 0.02 0.02 94 1011.0
20260507052138 56 181 1.0 1.0 0.00 0.02 0.02 94 1011.3
20260507051636 56 180 0.0 1.0 0.00 0.02 0.02 94 1010.9
20260507051133 56 161 0.0 0.0 0.00 0.02 0.02 94 1010.8
20260507050630 57 131 0.0 0.0 0.00 0.02 0.02 94 1010.7
20260507050126 57 161 0.0 0.0 0.00 0.02 0.02 95 1011.6
20260507045623 57 152 2.0 3.0 0.00 0.02 0.02 95 1011.3
20260507045120 57 213 0.0 1.0 0.00 0.02 0.02 94 1011.3
20260507044617 57 173 0.0 0.0 0.00 0.02 0.02 94 1011.0
20260507044114 58 178 0.0 1.0 0.00 0.02 0.02 93 1011.4
20260507043609 58 188 0.0 1.0 0.05 0.02 0.02 92 1011.3
20260507043107 58 185 1.0 1.0 0.05 0.02 0.02 91 1011.2
20260507042603 59 164 0.0 0.0 0.07 0.01 0.01 90 1011.2
20260507042058 59 215 1.0 2.0 0.07 0.01 0.01 88 1011.4
20260507041555 59 260 2.0 2.0 0.00 0.00 0.00 88 1011.2
20260507041052 59 229 2.0 5.0 0.00 0.00 0.00 88 1011.0
20260507040549 59 214 1.0 2.0 0.00 0.00 0.00 87 1011.0
20260507040045 59 159 0.0 1.0 0.00 0.00 0.00 87 1010.9
20260507035541 59 144 0.0 0.0 0.00 0.28 0.28 87 1010.7
20260507035038 60 166 1.0 1.0 0.00 0.28 0.28 88 1010.8
20260507034534 60 179 0.0 0.0 0.00 0.28 0.28 88 1010.7
20260507034032 60 186 1.0 2.0 0.00 0.28 0.28 87 1010.9
20260507033530 61 215 1.0 1.0 0.00 0.28 0.28 85 1010.8
20260507033028 61 171 0.0 0.0 0.00 0.28 0.28 83 1010.5
20260507032524 62 166 0.0 0.0 0.00 0.28 0.28 81 1010.7
20260507032020 62 177 1.0 2.0 0.00 0.28 0.28 80 1010.9
20260507031516 62 158 2.0 3.0 0.00 0.28 0.28 80 1010.7
20260507031014 62 184 2.0 3.0 0.00 0.28 0.28 80 1010.7
20260507030511 62 179 0.0 0.0 0.00 0.28 0.28 81 1010.5
20260507030009 62 176 1.0 1.0 0.00 0.28 0.28 81 1010.3
20260507025505 62 182 0.0 1.0 0.00 0.28 0.28 81 1009.7
20260507025003 62 226 2.0 3.0 0.00 0.28 0.28 81 1009.8
20260507024500 63 179 6.0 8.0 0.00 0.28 0.28 81 1010.0
20260507023956 63 200 2.0 2.0 0.00 0.28 0.28 83 1010.4
20260507023453 63 291 3.0 5.0 0.00 0.28 0.28 84 1010.1
20260507022950 63 194 1.0 2.0 0.00 0.28 0.28 85 1010.2
20260507022447 64 228 3.0 3.0 0.00 0.28 0.28 86 1010.0
20260507021942 64 193 2.0 3.0 0.00 0.28 0.28 87 1009.9
20260507021438 64 170 1.0 1.0 0.00 0.28 0.28 88 1009.8
20260507020936 64 179 1.0 1.0 0.00 0.28 0.28 88 1009.7
20260507020432 65 177 1.0 1.0 0.00 0.28 0.28 88 1009.8
20260507015929 65 172 3.0 3.0 0.00 0.28 0.28 88 1009.9
20260507015428 65 224 1.0 2.0 0.00 0.28 0.28 88 1009.6
20260507014924 65 128 0.0 1.0 0.00 0.28 0.28 88 1009.6
20260507014421 65 176 0.0 0.0 0.00 0.28 0.28 88 1009.6
20260507013917 65 171 0.0 1.0 0.00 0.28 0.28 88 1009.3
20260507013414 66 188 0.0 0.0 0.00 0.28 0.28 89 1009.6
20260507012911 66 184 1.0 1.0 0.00 0.28 0.28 90 1009.8
20260507012408 66 178 1.0 1.0 0.00 0.28 0.28 91 1009.8
20260507011859 66 196 1.0 1.0 0.00 0.28 0.28 92 1010.1
20260507011356 66 182 1.0 1.0 0.00 0.28 0.28 92 1009.9
20260507010855 66 180 0.0 0.0 0.00 0.28 0.28 92 1010.0
20260507010351 66 175 0.0 0.0 0.00 0.28 0.28 93 1009.7
20260507005849 66 180 0.0 0.0 0.00 0.28 0.28 93 1009.6
20260507005345 66 174 0.0 0.0 0.00 0.28 0.28 93 1009.5
20260507004842 66 174 0.0 0.0 0.00 0.28 0.28 93 1009.7
20260507004339 66 177 0.0 0.0 0.00 0.28 0.28 93 1009.5
20260507003836 66 170 0.0 0.0 0.00 0.28 0.28 92 1009.6
20260507003332 66 166 0.0 0.0 0.00 0.28 0.28 92 1009.4
20260507002827 66 170 0.0 0.0 0.00 0.28 0.28 91 1009.5
20260507002323 66 166 0.0 0.0 0.00 0.28 0.28 91 1009.3
20260507001821 66 171 0.0 0.0 0.00 0.28 0.28 90 1009.4
20260507001318 67 171 0.0 0.0 0.00 0.28 0.28 89 1009.4
20260507000814 67 170 0.0 0.0 0.00 0.28 0.28 89 1009.1
20260507000310 67 170 0.0 0.0 0.00 0.28 0.28 88 1009.1
20260506235806 68 170 0.0 0.0 0.00 0.28 0.28 87 1009.2
20260506235306 68 185 1.0 1.0 0.00 0.28 0.28 86 1009.0
20260506234754 68 175 0.0 0.0 0.00 0.28 0.28 85 1009.3
20260506234251 68 187 1.0 1.0 0.00 0.28 0.28 85 1009.1
20260506233749 68 177 1.0 1.0 0.00 0.28 0.28 85 1008.9
20260506233245 68 175 0.0 0.0 0.00 0.28 0.28 86 1008.8
20260506232742 68 170 0.0 0.0 0.00 0.28 0.28 85 1008.5
20260506232236 68 216 1.0 1.0 0.00 0.28 0.28 85 1008.9
20260506231734 68 177 0.0 1.0 0.00 0.28 0.28 85 1008.8
20260506231232 68 277 3.0 3.0 0.00 0.28 0.28 85 1008.6
20260506230729 68 193 1.0 1.0 0.00 0.28 0.28 84 1008.3
20260506230225 68 174 0.0 0.0 0.00 0.28 0.28 85 1008.4
20260506225722 68 174 0.0 0.0 0.00 0.28 0.28 84 1008.4
20260506225221 68 165 0.0 0.0 0.00 0.28 0.28 84 1008.5
20260506224715 68 170 0.0 0.0 0.00 0.28 0.28 85 1008.4
20260506224213 68 149 2.0 2.0 0.00 0.28 0.28 84 1008.4
20260506223709 68 146 3.0 5.0 0.00 0.28 0.28 84 1008.3
20260506223205 68 150 3.0 3.0 0.00 0.28 0.28 84 1008.3
20260506222702 68 129 1.0 2.0 0.00 0.28 0.28 84 1008.7
20260506222157 68 201 1.0 1.0 0.00 0.28 0.28 84 1008.5
20260506221656 68 176 0.0 1.0 0.00 0.28 0.28 84 1008.3
20260506221153 69 200 1.0 2.0 0.00 0.28 0.28 84 1008.3
20260506220650 69 150 2.0 3.0 0.00 0.28 0.28 82 1008.2
20260506220145 69 180 1.0 1.0 0.00 0.28 0.28 83 1008.3
20260506215642 69 157 1.0 1.0 0.00 0.28 0.28 83 1008.3
20260506215137 69 173 1.0 1.0 0.00 0.28 0.28 82 1008.5
20260506214634 70 197 2.0 2.0 0.00 0.28 0.28 82 1008.3
20260506214132 69 210 1.0 2.0 0.00 0.28 0.28 82 1008.2
20260506213630 70 139 3.0 5.0 0.00 0.28 0.28 81 1008.2
20260506213127 70 172 0.0 0.0 0.00 0.28 0.28 82 1008.3
20260506212624 69 164 1.0 2.0 0.00 0.28 0.28 82 1008.3
20260506212119 69 182 2.0 2.0 0.00 0.28 0.28 83 1008.2
20260506211614 69 167 1.0 1.0 0.00 0.28 0.28 83 1008.5
20260506211112 69 289 3.0 3.0 0.00 0.28 0.28 82 1008.3
20260506210609 69 176 2.0 3.0 0.00 0.28 0.28 82 1008.2
20260506210105 69 198 1.0 1.0 0.00 0.28 0.28 81 1008.1
20260506205602 70 185 1.0 1.0 0.00 0.28 0.28 82 1008.1
20260506205057 69 175 0.0 0.0 0.00 0.28 0.28 83 1008.0
20260506204555 69 171 3.0 5.0 0.00 0.28 0.28 82 1007.9
20260506204052 69 332 2.0 3.0 0.00 0.28 0.28 82 1008.0
20260506203550 69 247 4.0 5.0 0.00 0.28 0.28 82 1008.1
20260506203046 69 173 2.0 2.0 0.00 0.28 0.28 83 1007.8
20260506202544 69 189 1.0 2.0 0.00 0.28 0.28 81 1008.0
20260506202040 70 169 0.0 1.0 0.00 0.28 0.28 82 1007.9
20260506201538 69 259 2.0 3.0 0.00 0.28 0.28 83 1007.8
20260506201034 68 217 4.0 6.0 0.00 0.28 0.28 84 1007.9
20260506200530 68 228 3.0 5.0 0.00 0.28 0.28 84 1008.2
20260506200027 68 164 4.0 7.0 0.00 0.28 0.28 83 1008.0
20260506195524 68 144 3.0 3.0 0.00 0.28 0.28 83 1008.1
20260506195020 68 230 2.0 2.0 0.00 0.28 0.28 84 1008.0
20260506194518 68 209 1.0 2.0 0.00 0.28 0.28 84 1008.0
20260506194015 68 158 3.0 5.0 0.00 0.28 0.28 84 1008.4
20260506193512 68 202 2.0 2.0 0.00 0.28 0.28 84 1008.0
20260506193009 68 230 3.0 3.0 0.00 0.28 0.28 83 1008.0
20260506192506 68 187 2.0 2.0 0.00 0.28 0.28 83 1008.0
20260506192002 67 125 3.0 6.0 0.00 0.28 0.28 84 1008.4
20260506191459 67 334 3.0 6.0 0.00 0.28 0.28 84 1008.5
20260506190955 68 228 3.0 5.0 0.00 0.28 0.28 84 1008.3
20260506190452 68 202 1.0 2.0 0.00 0.28 0.28 84 1008.5
20260506185948 68 201 1.0 1.0 0.00 0.28 0.28 85 1008.5
20260506185446 67 136 2.0 2.0 0.00 0.28 0.28 86 1008.4
20260506184943 67 111 3.0 3.0 0.00 0.28 0.28 85 1008.7
20260506184439 66 274 5.0 7.0 0.00 0.28 0.28 86 1008.7
20260506183937 66 276 5.0 6.0 0.00 0.28 0.28 86 1008.6
20260506183432 66 162 1.0 1.0 0.00 0.28 0.28 86 1008.6
20260506182929 66 164 1.0 2.0 0.00 0.28 0.28 85 1008.7
20260506182427 66 230 3.0 3.0 0.00 0.28 0.28 87 1008.8
20260506181924 66 181 1.0 2.0 0.00 0.28 0.28 86 1008.9
20260506181422 66 114 4.0 5.0 0.00 0.28 0.28 86 1008.8
20260506180918 66 154 3.0 3.0 0.00 0.28 0.28 87 1008.9
20260506180414 66 343 2.0 5.0 0.00 0.28 0.28 87 1008.7
20260506175912 66 164 1.0 1.0 0.00 0.28 0.28 87 1009.0
20260506175409 66 186 1.0 1.0 0.00 0.28 0.28 87 1009.2
20260506174905 65 150 4.0 5.0 0.00 0.28 0.28 86 1009.2
20260506174403 65 230 4.0 5.0 0.00 0.28 0.28 87 1009.2
20260506173900 65 239 2.0 2.0 0.00 0.28 0.28 88 1009.0
20260506173356 65 172 3.0 3.0 0.00 0.28 0.28 88 1009.2
20260506172853 64 184 0.0 0.0 0.00 0.28 0.28 89 1009.5
20260506172350 64 174 1.0 2.0 0.00 0.28 0.28 89 1009.1
20260506171847 64 149 3.0 3.0 0.00 0.28 0.28 89 1009.4
20260506171345 64 108 3.0 3.0 0.00 0.28 0.28 90 1009.4
20260506170842 64 165 2.0 2.0 0.00 0.28 0.28 90 1009.5
20260506170338 64 120 5.0 7.0 0.00 0.28 0.28 90 1009.1
20260506165838 64 128 2.0 2.0 0.00 0.28 0.28 90 1009.5
20260506165335 64 148 2.0 2.0 0.00 0.28 0.28 91 1009.2
20260506164831 64 143 2.0 2.0 0.00 0.28 0.28 91 1009.2
20260506164328 63 158 1.0 2.0 0.00 0.28 0.28 92 1009.4
20260506163825 63 130 1.0 1.0 0.00 0.28 0.28 93 1009.1
20260506163320 63 125 5.0 7.0 0.00 0.28 0.28 95 1009.4
20260506162815 62 1 3.0 5.0 0.00 0.28 0.28 98 1009.4
20260506162313 62 15 4.0 6.0 0.00 0.28 0.28 98 1009.3
20260506161805 62 141 3.0 6.0 0.00 0.28 0.28 99 1009.4
20260506161302 61 189 3.0 5.0 0.00 0.28 0.28 99 1009.5
20260506160800 61 159 3.0 3.0 0.00 0.28 0.28 99 1009.4
20260506160256 61 144 2.0 5.0 0.00 0.28 0.28 99 1009.2
20260506155755 61 141 4.0 6.0 0.00 0.28 0.28 99 1009.4
20260506155252 61 145 3.0 5.0 0.00 0.28 0.28 99 1009.6
20260506153404 60 128 1.0 2.0 0.00 0.28 0.28 99 1009.7
20260506152901 60 130 2.0 2.0 0.00 0.28 0.28 99 1009.9
20260506152358 60 169 0.0 0.0 0.00 0.28 0.28 99 1009.8
20260506151857 60 163 6.0 7.0 0.00 0.28 0.28 99 1009.9
20260506151353 60 147 2.0 2.0 0.05 0.28 0.28 99 1009.7